Change the Weather History Date:

Monday, September 23, 2013

  Actual Average Record
Temperature  
Mean Temperature 65 °F -  
Max Temperature 70 °F 72 °F - ()
Min Temperature 60 °F 58 °F - ()
Growing Degree Days 15 (Base 50)    
Moisture  
Dew Point 58 °F    
Average Humidity 83    
Maximum Humidity 94    
Minimum Humidity 63    
Precipitation  
Precipitation 0.00 in 0.00 in - ()
Sea Level Pressure  
Sea Level Pressure 29.92 in    
Wind  
Wind Speed 6 mph ()    
Max Wind Speed 18 mph    
Max Gust Speed -    
Visibility 4.0 miles    
Events      
T = Trace of Precipitation, MM = Missing Value Source: Averaged Metar Reports

Daily Weather History Graph

Daily Weather History Graph

Search for Another Location

Airport or City:

Trip Planner

Search our weather history database for the weather conditions in past years. The results will help you decide how hot, cold, wet, or windy it might be!

Date:

Astronomy

Sep. 23, 2013 Rise Set
Actual Time 5:53 AM PET 6:00 PM PET
Civil Twilight 5:32 AM PET 6:22 PM PET
Nautical Twilight 5:07 AM PET 6:46 PM PET
Astronomical Twilight 4:42 AM PET 7:11 PM PET
Moon 9:53 PM PET (9/23) 8:51 AM PET (9/23)
Length of Visible Light 12h 49m
Length of Day
12h 07m
Waning Gibbous, 81% of the Moon is Illuminated
Sep 23
Waning Gibbous
Sep 26
Last Quarter
Oct 4
New
Oct 11
First Quarter
Oct 18
Full

Hourly Weather History & Observations

Time (PET) Temp. Dew Point Humidity Pressure Visibility Wind Dir Wind Speed Gust Speed Precip Events Conditions
12:00 AM 62.6 °F 59.0 °F 88% 29.92 in 5.0 mi WSW 4.6 mph - N/A   Overcast
1:00 AM 62 °F 60 °F 91% 29.90 in 5 mi WSW 6.9 mph - -   Mist
1:00 AM 62.6 °F 59.0 °F 88% 29.92 in 5.0 mi WSW 6.9 mph - N/A   Overcast
2:00 AM 62.6 °F 57.2 °F 82% 29.89 in 4.3 mi SSW 9.2 mph - N/A   Overcast
3:00 AM 62.6 °F 57.2 °F 82% 29.89 in 4.3 mi SSW 8.1 mph - N/A   Overcast
4:00 AM 62.6 °F 57.2 °F 82% 29.89 in 4.3 mi SW 6.9 mph - N/A   Overcast
5:00 AM 62.6 °F 57.2 °F 82% 29.89 in 3.7 mi SW 5.8 mph - N/A   Overcast
6:00 AM 62.6 °F 59.0 °F 88% 29.92 in 2.5 mi SE 3.5 mph - N/A   Overcast
7:00 AM 62 °F 58 °F 83% 29.92 in 2 mi East 3.5 mph - -   Mist
7:00 AM 60.8 °F 59.0 °F 94% 29.92 in 2.5 mi East 3.5 mph - N/A   Overcast
8:00 AM 62.6 °F 59.0 °F 88% 29.95 in 2.5 mi NNE 3.5 mph - N/A   Overcast
9:00 AM 62.6 °F 59.0 °F 88% 29.95 in 2.5 mi NE 3.5 mph - N/A   Overcast
10:00 AM 63 °F 60 °F 85% 29.96 in 3 mi North 3.5 mph - -   Mist
10:00 AM 62.6 °F 59.0 °F 88% 29.98 in 3.1 mi North 3.5 mph - N/A   Overcast
11:00 AM 64.4 °F 59.0 °F 83% 29.95 in 3.7 mi West 5.8 mph - N/A   Overcast
12:00 PM 64.4 °F 59.0 °F 83% 29.95 in 3.7 mi West 4.6 mph - N/A   Overcast
1:00 PM 65 °F 59 °F 76% 29.97 in 4 mi West 5.8 mph - -   Mist
1:00 PM 66.2 °F 59.0 °F 78% 29.95 in 3.7 mi West 5.8 mph - N/A   Overcast
2:00 PM 64.4 °F 59.0 °F 83% 29.92 in 3.7 mi West 6.9 mph - N/A   Overcast
3:00 PM 66.2 °F 59.0 °F 78% 29.89 in 3.7 mi West 5.8 mph - N/A   Mostly Cloudy
4:00 PM 69 °F 59 °F 63% 29.88 in 4 mi WSW 9.2 mph - -   Mist
4:00 PM 69.8 °F 59.0 °F 68% 29.89 in 4.3 mi WSW 9.2 mph - N/A   Scattered Clouds
5:00 PM 68.0 °F 59.0 °F 73% 29.89 in 5.0 mi SW 16.1 mph - N/A   Partly Cloudy
6:00 PM 62.6 °F 57.2 °F 82% 29.89 in 5.0 mi WSW 18.4 mph - N/A   Partly Cloudy
7:00 PM 61 °F 57 °F 84% 29.90 in 4 mi SW 16.1 mph - -   Mist
7:00 PM 60.8 °F 57.2 °F 88% 29.92 in 4.3 mi SW 16.1 mph - N/A   Partly Cloudy
8:00 PM 60.8 °F 57.2 °F 88% 29.95 in 5.6 mi SW 11.5 mph - N/A   Partly Cloudy
9:00 PM 60.8 °F 57.2 °F 88% 29.95 in 5.6 mi WSW 9.2 mph - N/A   Mostly Cloudy
10:00 PM 61 °F 58 °F 85% 29.94 in 5 mi WSW 5.8 mph - -   Mist
10:00 PM 60.8 °F 57.2 °F 88% 29.95 in 5.0 mi WSW 5.8 mph - N/A   Mostly Cloudy
11:00 PM 60.8 °F 57.2 °F 88% 29.95 in 5.0 mi SW 6.9 mph - N/A   Overcast